334P/NEAT (2000)

Japanese version
Home page
Updated on February 27, 2016

---------------------------------------------------------------------

* Profile

Designation 334P/2001 F1
Discovery Date March 24, 2001
Magnitude 19.7 mag
Discoverer Near-Earth-Asteroid Tracking Team (Jet Propulsion Laboratory)

* Orbital Elements

Epoch 2000 Dec. 2.0 TT = JDT 2451880.5
T 2000 Nov. 22.46775 TT                                 MPCW
q   4.1532623            (2000.0)            P               Q
n   0.06023670     Peri.   80.79210     -0.93961266     -0.10223937
a   6.4450840      Node    92.83342     -0.02407551     -0.93222537
e   0.3555922      Incl.   19.08748     +0.34139190     -0.34713538
P  16.4
From 139 observations 2001 Feb. 24-2016 Jan. 10, mean residual 0".6.

* Finding Charts

* Magnitudes Graph

        m1 = 9.5 + 5 log d + 10.0 log r

---------------------------------------------------------------------

The orbital elements are published on M.P.E.C. 2016-A105.
The charts are made with StellaNavigator Ver.2.0 for Windows (AstroArts / ASCII).
The magnitudes graphs are made with Comet for Windows.

---------------------------------------------------------------------

Copyright(C) Seiichi Yoshida (comet@aerith.net). All rights reserved.